Regional Weather Roundup
Issued by NWS

Home | Current Version | Previous Version | Graphics & Text | Print | Product List | Glossary On
Versions: 1 2 3 4 5 6 7 8 9 10 11 12 13 14 15 16 17 18 19 20 21 22 23 24 25 26 27 28 29 30 31 32 33 34 35 36 37 38 39 40 41 42 43 44 45 46 47 48 49 50
000
ASUS43 KLSX 081457
RWRMO

WEATHER SUMMARY FOR MISSOURI
NATIONAL WEATHER SERVICE SPRINGFIELD MO
900 AM CST MON FEB 08 2016

NOTE: "FAIR" INDICATES FEW OR NO CLOUDS BELOW 12,000 FEET WITH NO
       SIGNIFICANT WEATHER AND/OR OBSTRUCTIONS TO VISIBILITY.
       CURRENT SKY AND/OR WEATHER CONDITIONS ARE NOT AVAILABLE FOR
       CHILLICOTHE AND FARMINGTON.

MOZ001>031-035>038-043-044-053-054-081600-
...NORTHERN AND WESTERN MISSOURI...

CITY           SKY/WX    TMP DP  RH WIND       PRES   REMARKS
KANSAS CTY INT FLURRIES  30  18  60 NW23G44   30.03R WCI  17
LEE`S SUMMIT   CLOUDY    31  18  58 NW23      30.01R WCI  18
ST JOSEPH      FLURRIES  29  18  63 N21G33    30.05R WCI  16
CHILLICOTHE      N/A     26  13  57 NW21G37   29.99R WCI  12

$$
MOZ066>068-077>081-088>096-101>105-081600-
...SOUTHWEST MISSOURI...

CITY           SKY/WX    TMP DP  RH WIND       PRES   REMARKS
SPRINGFIELD    CLOUDY    35  17  47 NW14G28   29.96S WCI  26
JOPLIN         CLOUDY    36  20  52 W18       30.06S WCI  26

$$
MOZ032>034-039>042-045>050-055>058-069>072-081600-
...CENTRAL MISSOURI...

CITY           SKY/WX    TMP DP  RH WIND       PRES   REMARKS
COLUMBIA       NOT AVBL
JEFFERSON CITY CLOUDY    28  15  58 NW22G35   29.94R WCI  14
ROLLA          CLOUDY    27  21  78 NW24G31   29.87R HAZE    WCI  12
SEDALIA        FLURRIES  29  19  66 NW23G37   29.98R WCI  15

$$
MOZ051-052-059>065-081600-
...EAST CENTRAL MISSOURI...

CITY           SKY/WX    TMP DP  RH WIND       PRES   REMARKS
ST LOUIS INTL  LGT SNOW  28  21  75 NW18G31   29.85R WCI  15
ST CHARLES     LGT SNOW  27  23  85 NW21G28   29.84R FOG     WCI  13

$$
MOZ072>076-082>087-097>100-106>115-081600-
...SOUTH CENTRAL AND SOUTHEAST MISSOURI...

CITY           SKY/WX    TMP DP  RH WIND       PRES   REMARKS
CAPE GIRARDEAU CLOUDY    37  25  61 NW20G26   29.85R WCI  27
POPLAR BLUFF   CLOUDY    38  21  50 NW16G25   29.88R WCI  29
WEST PLAINS    CLOUDY    35  18  49 W17G25    29.90S WCI  25

$$


USA.gov is the U.S. government's official web portal to all federal, state and local government web resources and services.